Time,TemperatureF,DewpointF,PressureIn,WindDirection,WindDirectionDegrees,WindSpeedMPH,WindSpeedGustMPH,Humidity,HourlyPrecipIn,Conditions,Clouds,dailyrainin,SoftwareType,DateUTC
2013-03-04 00:01:00,19.0,14.0,30.17,NW,325,0.0,-999.0,81,-99.99,,,-99.99,,2013-03-04 05:01:00,
2013-03-04 00:11:00,19.0,14.0,30.17,NW,325,0.0,-999.0,81,-99.99,,,-99.99,,2013-03-04 05:11:00,
2013-03-04 00:22:00,19.0,14.0,30.18,NW,326,1.0,-999.0,81,-99.99,,,-99.99,,2013-03-04 05:22:00,
2013-03-04 00:32:00,19.0,14.0,30.18,NNW,327,1.0,-999.0,81,-99.99,,,-99.99,,2013-03-04 05:32:00,
2013-03-04 00:42:00,19.0,14.0,30.18,NNW,342,2.0,-999.0,81,-99.99,,,-99.99,,2013-03-04 05:42:00,
2013-03-04 00:52:00,19.0,14.0,30.18,NNW,342,2.0,-999.0,81,-99.99,,,-99.99,,2013-03-04 05:52:00,
2013-03-04 01:02:00,18.0,13.0,30.19,NNW,342,0.0,-999.0,81,-99.99,,,-99.99,,2013-03-04 06:02:00,
2013-03-04 01:11:00,18.0,13.0,30.19,NNW,342,0.0,-999.0,81,-99.99,,,-99.99,,2013-03-04 06:11:00,
2013-03-04 01:22:00,17.0,13.0,30.19,NNW,342,0.0,-999.0,83,-99.99,,,-99.99,,2013-03-04 06:22:00,
2013-03-04 01:32:00,16.0,12.0,30.19,NNW,342,0.0,-999.0,84,-99.99,,,-99.99,,2013-03-04 06:32:00,
2013-03-04 01:42:00,16.0,12.0,30.19,NNW,342,0.0,-999.0,84,-99.99,,,-99.99,,2013-03-04 06:42:00,
2013-03-04 01:51:00,15.0,12.0,30.19,NNW,342,0.0,-999.0,86,-99.99,,,-99.99,,2013-03-04 06:51:00,
2013-03-04 02:02:00,14.0,11.0,30.18,NNW,342,0.0,-999.0,87,-99.99,,,-99.99,,2013-03-04 07:02:00,
2013-03-04 02:11:00,14.0,11.0,30.18,NNW,342,0.0,-999.0,87,-99.99,,,-99.99,,2013-03-04 07:11:00,
2013-03-04 02:22:00,14.0,11.0,30.18,NNW,342,0.0,-999.0,88,-99.99,,,-99.99,,2013-03-04 07:22:00,
2013-03-04 02:32:00,13.0,10.0,30.18,NNW,342,0.0,-999.0,88,-99.99,,,-99.99,,2013-03-04 07:32:00,
2013-03-04 02:42:00,13.0,10.0,30.18,NNW,342,0.0,-999.0,88,-99.99,,,-99.99,,2013-03-04 07:42:00,
2013-03-04 02:52:00,13.0,10.0,30.18,NNW,342,0.0,-999.0,89,-99.99,,,-99.99,,2013-03-04 07:52:00,
2013-03-04 03:02:00,13.0,10.0,30.18,NNW,342,0.0,-999.0,89,-99.99,,,-99.99,,2013-03-04 08:02:00,
2013-03-04 03:12:00,13.0,10.0,30.19,NNW,342,0.0,-999.0,89,-99.99,,,-99.99,,2013-03-04 08:12:00,
2013-03-04 03:22:00,13.0,10.0,30.19,NNW,342,0.0,-999.0,89,-99.99,,,-99.99,,2013-03-04 08:22:00,
2013-03-04 03:32:00,12.0,10.0,30.19,NNW,342,0.0,-999.0,90,-99.99,,,-99.99,,2013-03-04 08:32:00,
2013-03-04 03:42:00,12.0,10.0,30.19,NNW,342,0.0,-999.0,90,-99.99,,,-99.99,,2013-03-04 08:42:00,
2013-03-04 03:52:00,12.0,10.0,30.19,NNW,342,0.0,-999.0,90,-99.99,,,-99.99,,2013-03-04 08:52:00,
2013-03-04 04:02:00,12.0,10.0,30.19,NNW,342,0.0,-999.0,90,-99.99,,,-99.99,,2013-03-04 09:02:00,
2013-03-04 04:11:00,12.0,10.0,30.19,NNW,342,0.0,-999.0,90,-99.99,,,-99.99,,2013-03-04 09:11:00,
2013-03-04 04:22:00,12.0,10.0,30.20,NNW,342,0.0,-999.0,90,-99.99,,,-99.99,,2013-03-04 09:22:00,
2013-03-04 04:32:00,12.0,10.0,30.21,NNW,342,0.0,-999.0,90,-99.99,,,-99.99,,2013-03-04 09:32:00,
2013-03-04 04:42:00,12.0,10.0,30.21,NNW,342,0.0,-999.0,90,-99.99,,,-99.99,,2013-03-04 09:42:00,
2013-03-04 04:52:00,11.0,9.0,30.20,NNW,342,0.0,-999.0,90,-99.99,,,-99.99,,2013-03-04 09:52:00,
2013-03-04 05:01:00,11.0,9.0,30.21,NNW,342,0.0,-999.0,90,-99.99,,,-99.99,,2013-03-04 10:01:00,
2013-03-04 05:11:00,11.0,9.0,30.21,NNW,342,0.0,-999.0,90,-99.99,,,-99.99,,2013-03-04 10:11:00,
2013-03-04 05:22:00,11.0,9.0,30.21,NNW,342,0.0,-999.0,90,-99.99,,,-99.99,,2013-03-04 10:22:00,
2013-03-04 05:32:00,10.0,8.0,30.21,NNW,342,0.0,-999.0,90,-99.99,,,-99.99,,2013-03-04 10:32:00,
2013-03-04 05:42:00,10.0,8.0,30.21,NNW,342,0.0,-999.0,90,-99.99,,,-99.99,,2013-03-04 10:42:00,
2013-03-04 05:52:00,10.0,8.0,30.21,NNW,342,0.0,-999.0,90,-99.99,,,-99.99,,2013-03-04 10:52:00,
2013-03-04 06:02:00,10.0,8.0,30.22,NNW,342,0.0,-999.0,90,-99.99,,,-99.99,,2013-03-04 11:02:00,
2013-03-04 06:11:00,10.0,8.0,30.22,NNW,342,0.0,-999.0,90,-99.99,,,-99.99,,2013-03-04 11:11:00,
2013-03-04 06:22:00,10.0,8.0,30.22,NNW,342,0.0,-999.0,90,-99.99,,,-99.99,,2013-03-04 11:22:00,
2013-03-04 06:32:00,10.0,8.0,30.23,NNW,342,0.0,-999.0,90,-99.99,,,-99.99,,2013-03-04 11:32:00,
2013-03-04 06:42:00,10.0,8.0,30.23,NNW,342,0.0,-999.0,90,-99.99,,,-99.99,,2013-03-04 11:42:00,
2013-03-04 06:52:00,10.0,8.0,30.23,NNW,342,0.0,-999.0,90,-99.99,,,-99.99,,2013-03-04 11:52:00,
2013-03-04 07:01:00,11.0,9.0,30.23,NNW,342,0.0,-999.0,90,-99.99,,,-99.99,,2013-03-04 12:01:00,
2013-03-04 07:11:00,11.0,9.0,30.23,NNW,342,0.0,-999.0,90,-99.99,,,-99.99,,2013-03-04 12:11:00,
2013-03-04 07:22:00,10.0,8.0,30.23,NNW,342,0.0,-999.0,90,-99.99,,,-99.99,,2013-03-04 12:22:00,
2013-03-04 07:32:00,10.0,8.0,30.23,NNW,342,0.0,-999.0,90,-99.99,,,-99.99,,2013-03-04 12:32:00,
2013-03-04 07:42:00,10.0,8.0,30.23,NNW,342,0.0,-999.0,90,-99.99,,,-99.99,,2013-03-04 12:42:00,
2013-03-04 07:52:00,10.0,8.0,30.23,NNW,342,0.0,-999.0,90,-99.99,,,-99.99,,2013-03-04 12:52:00,
2013-03-04 08:02:00,11.0,9.0,30.24,NNW,342,0.0,-999.0,91,-99.99,,,-99.99,,2013-03-04 13:02:00,
2013-03-04 08:11:00,11.0,9.0,30.24,NNW,342,0.0,-999.0,91,-99.99,,,-99.99,,2013-03-04 13:11:00,
2013-03-04 08:21:00,11.0,9.0,30.24,NNW,342,0.0,-999.0,91,-99.99,,,-99.99,,2013-03-04 13:21:00,
2013-03-04 08:32:00,12.0,10.0,30.24,NNW,342,0.0,-999.0,91,-99.99,,,-99.99,,2013-03-04 13:32:00,
2013-03-04 08:42:00,12.0,10.0,30.24,NNW,342,0.0,-999.0,91,-99.99,,,-99.99,,2013-03-04 13:42:00,
2013-03-04 08:52:00,13.0,11.0,30.25,NNW,342,0.0,-999.0,91,-99.99,,,-99.99,,2013-03-04 13:52:00,
2013-03-04 09:01:00,15.0,13.0,30.25,NNW,342,0.0,-999.0,91,-99.99,,,-99.99,,2013-03-04 14:01:00,
2013-03-04 09:12:00,15.0,13.0,30.25,NNW,342,0.0,-999.0,91,-99.99,,,-99.99,,2013-03-04 14:12:00,
2013-03-04 09:22:00,16.0,14.0,30.24,NNW,342,0.0,-999.0,90,-99.99,,,-99.99,,2013-03-04 14:22:00,
2013-03-04 09:32:00,18.0,15.0,30.23,North,11,1.0,-999.0,89,-99.99,,,-99.99,,2013-03-04 14:32:00,
2013-03-04 09:42:00,18.0,15.0,30.23,North,11,1.0,-999.0,89,-99.99,,,-99.99,,2013-03-04 14:42:00,
2013-03-04 09:52:00,19.0,16.0,30.23,ESE,103,2.0,-999.0,86,-99.99,,,-99.99,,2013-03-04 14:52:00,
2013-03-04 10:02:00,20.0,16.0,30.23,ESE,103,0.0,-999.0,83,-99.99,,,-99.99,,2013-03-04 15:02:00,
2013-03-04 10:11:00,20.0,16.0,30.23,ESE,103,0.0,-999.0,83,-99.99,,,-99.99,,2013-03-04 15:11:00,
2013-03-04 10:22:00,21.0,16.0,30.23,ESE,103,0.0,-999.0,80,-99.99,,,-99.99,,2013-03-04 15:22:00,
2013-03-04 10:32:00,24.0,18.0,30.23,NNW,346,2.0,-999.0,77,-99.99,,,-99.99,,2013-03-04 15:32:00,
2013-03-04 10:42:00,24.0,18.0,30.23,NNW,346,2.0,-999.0,77,-99.99,,,-99.99,,2013-03-04 15:42:00,
2013-03-04 10:52:00,24.0,17.0,30.23,NNW,344,3.0,-999.0,75,-99.99,,,-99.99,,2013-03-04 15:52:00,
2013-03-04 11:03:00,25.0,18.0,30.23,NNW,346,2.0,-999.0,73,-99.99,,,-99.99,,2013-03-04 16:03:00,
2013-03-04 11:11:00,25.0,18.0,30.23,NNW,346,2.0,-999.0,73,-99.99,,,-99.99,,2013-03-04 16:11:00,
2013-03-04 11:21:00,26.0,18.0,30.22,NE,56,2.0,-999.0,71,-99.99,,,-99.99,,2013-03-04 16:21:00,
2013-03-04 11:32:00,25.0,16.0,30.22,North,9,3.0,-999.0,69,-99.99,,,-99.99,,2013-03-04 16:32:00,
2013-03-04 11:42:00,25.0,16.0,30.22,North,9,3.0,-999.0,69,-99.99,,,-99.99,,2013-03-04 16:42:00,
2013-03-04 11:52:00,27.0,18.0,30.22,North,350,3.0,-999.0,69,-99.99,,,-99.99,,2013-03-04 16:52:00,
2013-03-04 12:02:00,27.0,18.0,30.22,NNW,336,2.0,-999.0,67,-99.99,,,-99.99,,2013-03-04 17:02:00,
2013-03-04 12:11:00,27.0,18.0,30.22,NNW,336,2.0,-999.0,67,-99.99,,,-99.99,,2013-03-04 17:11:00,
2013-03-04 12:22:00,28.0,19.0,30.22,NNE,13,1.0,-999.0,68,-99.99,,,-99.99,,2013-03-04 17:22:00,
2013-03-04 12:32:00,28.0,18.0,30.22,North,355,3.0,-999.0,66,-99.99,,,-99.99,,2013-03-04 17:32:00,
2013-03-04 12:42:00,28.0,18.0,30.22,North,355,3.0,-999.0,66,-99.99,,,-99.99,,2013-03-04 17:42:00,
2013-03-04 12:52:00,28.0,17.0,30.21,NNE,22,3.0,-999.0,64,-99.99,,,-99.99,,2013-03-04 17:52:00,
2013-03-04 13:02:00,29.0,19.0,30.20,ENE,78,2.0,-999.0,65,-99.99,,,-99.99,,2013-03-04 18:02:00,
2013-03-04 13:11:00,29.0,19.0,30.20,ENE,78,2.0,-999.0,65,-99.99,,,-99.99,,2013-03-04 18:11:00,
2013-03-04 13:22:00,29.0,18.0,30.20,NNW,327,2.0,-999.0,64,-99.99,,,-99.99,,2013-03-04 18:22:00,
2013-03-04 13:32:00,29.0,18.0,30.19,WSW,248,2.0,-999.0,64,-99.99,,,-99.99,,2013-03-04 18:32:00,
2013-03-04 13:42:00,29.0,18.0,30.19,WSW,248,2.0,-999.0,64,-99.99,,,-99.99,,2013-03-04 18:42:00,
2013-03-04 13:52:00,29.0,18.0,30.19,North,5,3.0,-999.0,63,-99.99,,,-99.99,,2013-03-04 18:52:00,
2013-03-04 14:02:00,29.0,18.0,30.19,West,278,1.0,-999.0,62,-99.99,,,-99.99,,2013-03-04 19:02:00,
2013-03-04 14:12:00,29.0,18.0,30.19,West,278,1.0,-999.0,62,-99.99,,,-99.99,,2013-03-04 19:12:00,
2013-03-04 14:22:00,31.0,19.0,30.18,NE,54,2.0,-999.0,61,-99.99,,,-99.99,,2013-03-04 19:22:00,
2013-03-04 14:32:00,31.0,18.0,30.18,ENE,57,1.0,-999.0,59,-99.99,,,-99.99,,2013-03-04 19:32:00,
2013-03-04 14:42:00,31.0,18.0,30.18,ENE,57,1.0,-999.0,59,-99.99,,,-99.99,,2013-03-04 19:42:00,
2013-03-04 14:52:00,32.0,19.0,30.17,East,86,1.0,-999.0,57,-99.99,,,-99.99,,2013-03-04 19:52:00,
2013-03-04 15:02:00,33.0,17.0,30.16,North,5,2.0,-999.0,52,-99.99,,,-99.99,,2013-03-04 20:02:00,
2013-03-04 15:11:00,34.0,18.0,30.16,NE,46,4.0,-999.0,51,-99.99,,,-99.99,,2013-03-04 20:11:00,
2013-03-04 15:22:00,34.0,18.0,30.16,NE,46,4.0,-999.0,51,-99.99,,,-99.99,,2013-03-04 20:22:00,
2013-03-04 15:32:00,33.0,17.0,30.16,East,79,1.0,-999.0,51,-99.99,,,-99.99,,2013-03-04 20:32:00,
2013-03-04 15:42:00,33.0,17.0,30.16,East,79,1.0,-999.0,51,-99.99,,,-99.99,,2013-03-04 20:42:00,
2013-03-04 15:52:00,34.0,19.0,30.16,East,84,1.0,-999.0,53,-99.99,,,-99.99,,2013-03-04 20:52:00,
2013-03-04 16:02:00,34.0,18.0,30.15,SE,126,1.0,-999.0,51,-99.99,,,-99.99,,2013-03-04 21:02:00,
2013-03-04 16:12:00,34.0,18.0,30.15,SE,126,1.0,-999.0,51,-99.99,,,-99.99,,2013-03-04 21:12:00,
2013-03-04 16:22:00,35.0,18.0,30.15,ENE,67,2.0,-999.0,50,-99.99,,,-99.99,,2013-03-04 21:22:00,
2013-03-04 16:32:00,35.0,18.0,30.14,ENE,63,2.0,-999.0,50,-99.99,,,-99.99,,2013-03-04 21:32:00,
2013-03-04 16:42:00,35.0,18.0,30.14,ENE,63,2.0,-999.0,50,-99.99,,,-99.99,,2013-03-04 21:42:00,
2013-03-04 16:52:00,35.0,17.0,30.14,SSE,147,3.0,-999.0,48,-99.99,,,-99.99,,2013-03-04 21:52:00,
2013-03-04 17:02:00,35.0,17.0,30.14,SSE,147,3.0,-999.0,48,-99.99,,,-99.99,,2013-03-04 22:02:00,
2013-03-04 17:12:00,35.0,17.0,30.14,SSE,147,3.0,-999.0,48,-99.99,,,-99.99,,2013-03-04 22:12:00,
2013-03-04 17:22:00,34.0,19.0,30.15,SE,132,4.0,-999.0,53,-99.99,,,-99.99,,2013-03-04 22:22:00,
2013-03-04 17:32:00,34.0,20.0,30.15,SE,131,3.0,-999.0,55,-99.99,,,-99.99,,2013-03-04 22:32:00,
2013-03-04 17:42:00,34.0,20.0,30.15,SE,131,3.0,-999.0,55,-99.99,,,-99.99,,2013-03-04 22:42:00,
2013-03-04 17:52:00,33.0,20.0,30.15,ESE,119,4.0,-999.0,58,-99.99,,,-99.99,,2013-03-04 22:52:00,
2013-03-04 18:02:00,33.0,20.0,30.14,SSE,168,3.0,-999.0,59,-99.99,,,-99.99,,2013-03-04 23:02:00,
2013-03-04 18:11:00,33.0,20.0,30.14,SSE,168,3.0,-999.0,59,-99.99,,,-99.99,,2013-03-04 23:11:00,
2013-03-04 18:22:00,32.0,19.0,30.15,SE,139,3.0,-999.0,58,-99.99,,,-99.99,,2013-03-04 23:22:00,
2013-03-04 18:32:00,32.0,19.0,30.15,SE,138,4.0,-999.0,58,-99.99,,,-99.99,,2013-03-04 23:32:00,
2013-03-04 18:42:00,32.0,19.0,30.15,SE,138,4.0,-999.0,58,-99.99,,,-99.99,,2013-03-04 23:42:00,
2013-03-04 18:52:00,31.0,18.0,30.15,SE,132,3.0,-999.0,59,-99.99,,,-99.99,,2013-03-04 23:52:00,
2013-03-04 19:02:00,30.0,17.0,30.15,SE,132,3.0,-999.0,59,-99.99,,,-99.99,,2013-03-05 00:02:00,
2013-03-04 19:12:00,30.0,17.0,30.15,SE,132,3.0,-999.0,59,-99.99,,,-99.99,,2013-03-05 00:12:00,
2013-03-04 19:22:00,29.0,17.0,30.15,ESE,111,2.0,-999.0,61,-99.99,,,-99.99,,2013-03-05 00:22:00,
2013-03-04 19:32:00,29.0,17.0,30.15,ESE,117,2.0,-999.0,61,-99.99,,,-99.99,,2013-03-05 00:32:00,
2013-03-04 19:42:00,29.0,17.0,30.15,ESE,117,2.0,-999.0,61,-99.99,,,-99.99,,2013-03-05 00:42:00,
2013-03-04 19:52:00,29.0,18.0,30.16,SE,126,1.0,-999.0,62,-99.99,,,-99.99,,2013-03-05 00:52:00,
2013-03-04 20:01:00,28.0,17.0,30.16,ESE,111,1.0,-999.0,64,-99.99,,,-99.99,,2013-03-05 01:01:00,
2013-03-04 20:12:00,28.0,17.0,30.16,ESE,111,1.0,-999.0,64,-99.99,,,-99.99,,2013-03-05 01:12:00,
2013-03-04 20:22:00,28.0,18.0,30.16,ESE,102,1.0,-999.0,65,-99.99,,,-99.99,,2013-03-05 01:22:00,
2013-03-04 20:32:00,28.0,18.0,30.16,East,94,1.0,-999.0,65,-99.99,,,-99.99,,2013-03-05 01:32:00,
2013-03-04 20:42:00,28.0,18.0,30.16,East,94,1.0,-999.0,65,-99.99,,,-99.99,,2013-03-05 01:42:00,
2013-03-04 20:52:00,27.0,17.0,30.16,East,95,1.0,-999.0,66,-99.99,,,-99.99,,2013-03-05 01:52:00,
2013-03-04 21:01:00,27.0,17.0,30.16,East,95,1.0,-999.0,66,-99.99,,,-99.99,,2013-03-05 02:01:00,
2013-03-04 21:11:00,27.0,17.0,30.16,East,95,1.0,-999.0,66,-99.99,,,-99.99,,2013-03-05 02:11:00,
2013-03-04 21:22:00,26.0,17.0,30.16,East,96,0.0,-999.0,68,-99.99,,,-99.99,,2013-03-05 02:22:00,
2013-03-04 21:32:00,26.0,17.0,30.16,East,96,0.0,-999.0,68,-99.99,,,-99.99,,2013-03-05 02:32:00,
2013-03-04 21:42:00,26.0,17.0,30.16,East,96,0.0,-999.0,68,-99.99,,,-99.99,,2013-03-05 02:42:00,
2013-03-04 21:53:00,25.0,16.0,30.16,East,96,0.0,-999.0,69,-99.99,,,-99.99,,2013-03-05 02:53:00,
2013-03-04 22:02:00,25.0,16.0,30.16,East,96,0.0,-999.0,69,-99.99,,,-99.99,,2013-03-05 03:02:00,
2013-03-04 22:12:00,25.0,16.0,30.16,East,96,0.0,-999.0,69,-99.99,,,-99.99,,2013-03-05 03:12:00,
2013-03-04 22:22:00,25.0,16.0,30.17,East,96,0.0,-999.0,69,-99.99,,,-99.99,,2013-03-05 03:22:00,
2013-03-04 22:32:00,25.0,16.0,30.17,East,94,1.0,-999.0,68,-99.99,,,-99.99,,2013-03-05 03:32:00,
2013-03-04 22:42:00,25.0,16.0,30.17,East,94,1.0,-999.0,68,-99.99,,,-99.99,,2013-03-05 03:42:00,
2013-03-04 22:52:00,25.0,16.0,30.17,East,94,0.0,-999.0,68,-99.99,,,-99.99,,2013-03-05 03:52:00,
2013-03-04 23:02:00,24.0,15.0,30.17,East,94,0.0,-999.0,68,-99.99,,,-99.99,,2013-03-05 04:02:00,
2013-03-04 23:12:00,24.0,15.0,30.17,East,94,0.0,-999.0,68,-99.99,,,-99.99,,2013-03-05 04:12:00,
2013-03-04 23:22:00,24.0,15.0,30.18,East,94,0.0,-999.0,69,-99.99,,,-99.99,,2013-03-05 04:22:00,
2013-03-04 23:32:00,24.0,15.0,30.18,East,94,0.0,-999.0,69,-99.99,,,-99.99,,2013-03-05 04:32:00,
2013-03-04 23:42:00,24.0,15.0,30.18,East,94,0.0,-999.0,69,-99.99,,,-99.99,,2013-03-05 04:42:00,
2013-03-04 23:52:00,23.0,15.0,30.17,East,94,0.0,-999.0,71,-99.99,,,-99.99,,2013-03-05 04:52:00,